User: anonymous   Login
Location: Prairie State College
(41.5244°N, 87.6382°W)
Time: 10:57:54
(UTC-05:00)
Language:

ARGOS Delta rocket - Orbit

View from above orbital plane
View from above orbital plane
View from above satellite
View from above satellite

Ground track
Ground track

The orbit data is extracted from the following two-line orbital elements,

1 25637U 99008D   15117.83273471  .00000355  00000-0  95689-4 0  9993
2 25637 096.4758 191.0030 0141747 246.4259 226.3794 14.46244003852662
Epoch (UTC): 27 April 2015 19:59:08
Eccentricity: 0.0141747
inclination: 96.4758°
perigee height: 637 km
apogee height: 839 km
right ascension of ascending node: 191.0030°
argument of perigee: 246.4259°
revolutions per day: 14.46244003
mean anomaly at epoch: 226.3794°
orbit number at epoch: 85266

The dashed part of the orbit path shows where the satellite is in the earth's shadow,  

DLR